Location: Castillon
(43.0896°N, 0.2156°E)
Time: 15:16:02
(UTC+00:00)

Lacrosse 5 rocket - Pass Details

Date: 16 June 2021
Orbit: 460 x 634 km, 57.0° (Epoch: 31 July)

Event Time Altitude Azimuth Distance (km) Brightness Sun altitude
Rises 22:25:15 0° 241° (WSW) 2,533 4.7 -20.0°
Reaches altitude 10° 22:27:29 10° 248° (WSW) 1,637 3.7 -20.2°
Maximum altitude 22:31:00 44° 322° (NW) 650 2.1 -20.4°
Drops below altitude 10° 22:34:28 10° 36° (NE) 1,611 4.1 -20.7°
Sets 22:36:40 0° 43° (NE) 2,487 5.0 -20.8°
